Hourly Data Report for August 01, 2019

QUALICUM BEACH AIRPORT
BRITISH COLUMBIA
Current Station Operator: ECCC - MSC

49°20'14.000" N
124°23'38.000" W
58.20 m
1026562
71766
VOQ

Download Data

Hourly Data (August 2019)
Hourly Data Report for August 1, 2019
TIME
LST
Temp Definition
°C
Dew Point Definition
°C
Rel Hum Definition
%
Precip. Amount Definition
mm

Wind Dir Definition
10's deg

Wind Spd Definition
km/h
Visibility Definition
km
Stn Press Definition
kPa
Hmdx Definition


Wind Chill Definition


Weather Definition


00:00 15.4 14.6 95 0.0 0 1   100.75     LegendNANA
01:00 14.6 13.8 95 0.0 0 1   100.72     LegendNANA
02:00 14.5 13.7 95 0.0 0 1   100.70     LegendNANA
03:00 14.2 13.3 94 0.0 0 1   100.69     LegendNANA
04:00 14.3 13.4 95 0.0   0   100.71     LegendNANA
05:00 14.6 13.6 94 0.0 29 3   100.72     LegendNANA
06:00 15.2 14.1 94 0.0   0   100.74     LegendNANA
07:00 15.7 14.4 92 0.0 15 3   100.74     LegendNANA
08:00 18.5 13.9 75 0.0   0   100.77     LegendNANA
09:00 18.4 15.0 80 0.0 9 4   100.77     LegendNANA
10:00 17.7 16.1 90 0.7 5 2   100.76     LegendNANA
11:00 18.0 15.7 87 0.7 18 2   100.77     LegendNANA
12:00 17.9 16.8 93 1.0 34 4   100.77     LegendNANA
13:00 17.4 15.8 91 0.1 10 7   100.76     LegendNANA
14:00 17.4 16.5 95 0.7 31 6   100.71     LegendNANA
15:00 16.8 15.9 95 0.0 32 8   100.68     LegendNANA
16:00 17.0 16.1 94 0.4 19 2   100.59     LegendNANA
17:00 17.8 16.7 94 0.2 26 2   100.49     LegendNANA
18:00 17.9 17.0 94 0.0 0 1   100.43     LegendNANA
19:00 17.8 16.5 92 1.1 14 6   100.39     LegendNANA
20:00 17.3 16.0 92 0.7 11 6   100.34     LegendNANA
21:00 17.3 16.2 93 1.1 13 12   100.34     LegendNANA
22:00 17.0 15.9 93 1.5 13 9   100.31     LegendNANA
23:00 17.5 15.9 91 0.0 14 16   100.23     LegendNANA

Notes on Data Quality.

Legend

  • E = Estimated
  • M = Missing
  • NA = Not Available*
  • [empty] = Indicates an unobserved value
Date modified: